Simultaneous Nadir Overpasses (SNOs) Predictions

Prediction of SNOs between METOP-A and NOAA-19 Satellite Orbit:

Table of predicted SNOs for the next 14.0 days since TLE Epoch: 9/7/2012
Index Date (METOP-A) Time (METOP-A) METOP-A Lat,Lon Date (NOAA-19) Time (NOAA-19) NOAA-19 Lat,Lon Distance(km) Time Diff (sec)
1 09/12/2012 09:26:56 -73.60,-148.05 09/12/2012 09:25:46 -73.63,-150.00 61.30 70
2 09/12/2012 10:17:45 73.15, 18.27 09/12/2012 10:16:45 73.17, 18.26 2.64 60
3 09/12/2012 11:08:27 -73.13,-174.44 09/12/2012 11:07:41 -73.13,-174.38 2.13 46
4 09/12/2012 11:59:07 73.13, -7.12 09/12/2012 11:58:49 73.12, -7.14 1.07 18
5 09/12/2012 12:49:49 -73.11, 160.17 09/12/2012 12:49:46 -73.13, 160.11 2.66 3
6 09/12/2012 13:40:30 73.06, -32.62 09/12/2012 13:40:53 73.07, -32.54 2.70 23
7 09/12/2012 14:31:11 -73.09, 134.78 09/12/2012 14:31:50 -73.07, 134.71 2.97 39
8 09/12/2012 15:21:52 73.03, -58.00 09/12/2012 15:22:57 73.01, -57.94 2.92 65
9 09/12/2012 16:12:38 -72.81, 108.86 09/12/2012 16:13:50 -72.82, 109.74 28.71 72




NCC Satellite Simultaneous Nadir Overpasses (SNOs) Prediction Service
